Time,TemperatureF,DewpointF,PressureIn,WindDirection,WindDirectionDegrees,WindSpeedMPH,WindSpeedGustMPH,Humidity,HourlyPrecipIn,Conditions,Clouds,dailyrainin,SoftwareType,DateUTC
2014-08-21 00:13:00,77.0,70.0,-100.00,NNW,328,6.0,8.0,79,-99.99,,,-99.99,,2014-08-21 04:13:00,
2014-08-21 00:24:00,77.0,70.0,-100.00,WSW,251,3.0,4.0,79,-99.99,,,-99.99,,2014-08-21 04:24:00,
2014-08-21 00:33:00,77.0,70.0,-100.00,WSW,251,3.0,4.0,79,-99.99,,,-99.99,,2014-08-21 04:33:00,
2014-08-21 00:43:00,77.0,70.0,-100.00,WSW,251,3.0,4.0,79,-99.99,,,-99.99,,2014-08-21 04:43:00,
2014-08-21 01:13:00,77.0,70.0,-100.00,SSE,158,4.0,5.0,78,-99.99,,,-99.99,,2014-08-21 05:13:00,
2014-08-21 01:22:00,77.0,70.0,-100.00,SSE,158,4.0,5.0,78,-99.99,,,-99.99,,2014-08-21 05:22:00,
2014-08-21 02:12:00,77.0,66.0,-100.00,NNE,12,1.0,2.0,69,-99.99,,,-99.99,,2014-08-21 06:12:00,
2014-08-21 02:22:00,76.0,66.0,-100.00,South,169,3.0,4.0,70,-99.99,,,-99.99,,2014-08-21 06:22:00,
2014-08-21 03:32:00,75.0,69.0,-100.00,WSW,249,2.0,3.0,81,-99.99,,,-99.99,,2014-08-21 07:32:00,
2014-08-21 03:53:00,74.0,68.0,-100.00,North,355,4.0,5.0,81,-99.99,,,-99.99,,2014-08-21 07:53:00,
2014-08-21 04:12:00,74.0,67.0,-100.00,WSW,257,1.0,1.0,80,-99.99,,,-99.99,,2014-08-21 08:12:00,
2014-08-21 04:23:00,74.0,67.0,-100.00,WSW,257,1.0,1.0,80,-99.99,,,-99.99,,2014-08-21 08:23:00,
2014-08-21 05:22:00,73.0,67.0,-100.00,SSE,159,1.0,2.0,82,-99.99,,,-99.99,,2014-08-21 09:22:00,
2014-08-21 06:24:00,73.0,68.0,-100.00,WNW,290,2.0,2.0,85,-99.99,,,-99.99,,2014-08-21 10:24:00,
2014-08-21 06:33:00,73.0,68.0,-100.00,WNW,290,2.0,2.0,85,-99.99,,,-99.99,,2014-08-21 10:33:00,
2014-08-21 07:13:00,72.0,68.0,-100.00,NNW,335,2.0,3.0,86,-99.99,,,-99.99,,2014-08-21 11:13:00,
2014-08-21 07:23:00,72.0,67.0,-100.00,West,276,2.0,2.0,87,-99.99,,,-99.99,,2014-08-21 11:23:00,
2014-08-21 08:12:00,73.0,68.0,-100.00,West,280,3.0,4.0,84,-99.99,,,-99.99,,2014-08-21 12:12:00,
2014-08-21 08:53:00,75.0,69.0,-100.00,WSW,255,1.0,2.0,81,-99.99,,,-99.99,,2014-08-21 12:53:00,
2014-08-21 09:32:00,78.0,69.0,-100.00,SSE,159,2.0,2.0,75,-99.99,,,-99.99,,2014-08-21 13:32:00,
2014-08-21 09:54:00,78.0,68.0,-100.00,West,276,2.0,3.0,70,-99.99,,,-99.99,,2014-08-21 13:54:00,
2014-08-21 10:22:00,81.0,67.0,-100.00,SW,231,3.0,5.0,63,-99.99,,,-99.99,,2014-08-21 14:22:00,
2014-08-21 11:13:00,83.0,67.0,-100.00,WSW,246,1.0,2.0,58,-99.99,,,-99.99,,2014-08-21 15:13:00,
2014-08-21 11:22:00,84.0,68.0,-100.00,NNW,335,5.0,8.0,58,-99.99,,,-99.99,,2014-08-21 15:22:00,
2014-08-21 11:34:00,84.0,68.0,-100.00,NNW,335,5.0,8.0,58,-99.99,,,-99.99,,2014-08-21 15:34:00,
2014-08-21 11:55:00,85.0,69.0,-100.00,North,8,7.0,9.0,58,-99.99,,,-99.99,,2014-08-21 15:55:00,
2014-08-21 12:04:00,85.0,69.0,-100.00,North,8,7.0,9.0,58,-99.99,,,-99.99,,2014-08-21 16:04:00,
2014-08-21 12:14:00,85.0,69.0,-100.00,North,8,7.0,9.0,58,-99.99,,,-99.99,,2014-08-21 16:14:00,
2014-08-21 12:24:00,87.0,70.0,-100.00,ESE,109,1.0,1.0,57,-99.99,,,-99.99,,2014-08-21 16:24:00,
2014-08-21 12:34:00,87.0,70.0,-100.00,ESE,109,1.0,1.0,57,-99.99,,,-99.99,,2014-08-21 16:34:00,
2014-08-21 13:14:00,87.0,69.0,-100.00,NNW,346,3.0,4.0,54,-99.99,,,-99.99,,2014-08-21 17:14:00,
2014-08-21 13:23:00,89.0,68.0,-100.00,SE,125,4.0,-999.0,50,-99.99,,,-99.99,,2014-08-21 17:23:00,
2014-08-21 13:34:00,89.0,68.0,-100.00,SE,125,4.0,-999.0,50,-99.99,,,-99.99,,2014-08-21 17:34:00,
2014-08-21 14:32:00,90.0,67.0,-100.00,SW,234,3.0,4.0,47,-99.99,,,-99.99,,2014-08-21 18:32:00,
2014-08-21 14:43:00,90.0,67.0,-100.00,SW,234,3.0,4.0,47,-99.99,,,-99.99,,2014-08-21 18:43:00,